History for KNYNEWYO639

Roof of a 1 story trailer, New York, NY — Current Conditions
Daily Summary for November 12, 2018
  Current: High: Low: Average:
Temperature: 49.1°F 49.1°F 36.2°F 42.7°F
Dew Point: 39.0°F 39.0°F 28.0°F 32.3°F
Humidity: 68% 83% 46% 64%
Wind Speed: 1.2mph 18.2mph - 3.6mph
Wind Gust: 3.0mph 20.0mph - -
Wind: NE - - ESE
Pressure: 30.40in 30.52in 30.39in -
Precipitation: 0.00in      
Statistics for the rest of the month
    High: Low: Average:
Temperature:   73.9°F 33.8°F 54.2°F
Dew Point:   68.0°F 21.0°F 43.8°F
Humidity:   99.0% 39.0% 70.3%
Wind Speed:   31.5mph from the SW - 6.8mph
Wind Gust:   33.0mph from the South - -
Wind:   - - SSE
Pressure:   30.63in 29.62in -
Precipitation:   0.00in    
KNYNEWYO639 Weather Graph
Tabular Data for November 12, 2018
Time Temp. Windchill Dew Point Pressure Wind Gust Humidity Rainfall
00:04 40.3°F - 28.0°F 30.45in 4.0mph 61% 0.00in
00:09 40.2°F - 28.0°F 30.45in 3.0mph 61% 0.00in
00:14 40.1°F - 29.0°F 30.45in 3.0mph 62% 0.00in
00:19 39.9°F - 28.0°F 30.45in 2.0mph 61% 0.00in
00:24 39.8°F - 28.0°F 30.44in 3.0mph 61% 0.00in
00:29 39.7°F - 29.0°F 30.44in 2.0mph 62% 0.00in
00:34 39.9°F - 29.0°F 30.44in 1.0mph 63% 0.00in
00:39 40.2°F - 29.0°F 30.44in 1.0mph 64% 0.00in
00:44 40.3°F - 29.0°F 30.44in 2.0mph 64% 0.00in
00:49 40.2°F - 29.0°F 30.44in 2.0mph 64% 0.00in
00:54 40.1°F - 29.0°F 30.44in 2.0mph 63% 0.00in
00:59 40.2°F - 29.0°F 30.44in 2.0mph 62% 0.00in
01:04 40.3°F - 29.0°F 30.44in 1.0mph 62% 0.00in
01:09 39.8°F - 29.0°F 30.44in 4.0mph 63% 0.00in
01:14 39.6°F - 31.0°F 30.44in 2.0mph 66% 0.00in
01:19 40.0°F - 31.0°F 30.45in 1.0mph 66% 0.00in
01:24 39.9°F - 31.0°F 30.45in 4.0mph 67% 0.00in
01:29 39.6°F - 31.0°F 30.45in 3.0mph 68% 0.00in
01:34 39.8°F 37.8°F 31.0°F 30.44in 3.0mph 69% 0.00in
01:39 39.7°F 37.5°F 31.0°F 30.45in 4.0mph 68% 0.00in
01:44 39.7°F 37.0°F 31.0°F 30.45in 4.0mph 68% 0.00in
01:49 39.9°F 36.1°F 31.0°F 30.45in 5.0mph 68% 0.00in
01:54 40.1°F 36.3°F 31.0°F 30.45in 6.0mph 68% 0.00in
01:59 40.1°F 37.3°F 31.0°F 30.45in 7.0mph 69% 0.00in
02:04 40.0°F - 31.0°F 30.46in 5.0mph 69% 0.00in
02:09 39.8°F - 31.0°F 30.45in 4.0mph 69% 0.00in
02:14 39.5°F - 31.0°F 30.45in 4.0mph 69% 0.00in
02:19 39.3°F 36.5°F 31.0°F 30.45in 5.0mph 70% 0.00in
02:24 39.2°F 36.9°F 31.0°F 30.46in 5.0mph 70% 0.00in
02:29 39.0°F - 31.0°F 30.46in 4.0mph 71% 0.00in
02:34 38.7°F 35.5°F 31.0°F 30.46in 4.0mph 70% 0.00in
02:39 38.4°F 35.3°F 29.0°F 30.46in 4.0mph 70% 0.00in
02:44 38.2°F - 29.0°F 30.45in 4.0mph 71% 0.00in
02:49 38.2°F - 29.0°F 30.45in 4.0mph 71% 0.00in
02:54 38.1°F - 29.0°F 30.45in 3.0mph 71% 0.00in
02:59 37.9°F 35.4°F 29.0°F 30.45in 4.0mph 71% 0.00in
03:04 37.8°F - 31.0°F 30.45in 7.0mph 73% 0.00in
03:09 37.8°F - 31.0°F 30.45in 5.0mph 74% 0.00in
03:14 37.9°F 35.6°F 31.0°F 30.45in 4.0mph 75% 0.00in
03:19 37.9°F 34.1°F 31.0°F 30.45in 9.0mph 75% 0.00in
03:24 37.9°F 34.5°F 31.0°F 30.45in 6.0mph 76% 0.00in
03:29 37.9°F 34.9°F 31.0°F 30.45in 5.0mph 76% 0.00in
03:34 37.7°F 34.5°F 32.0°F 30.45in 5.0mph 77% 0.00in
03:39 37.5°F - 32.0°F 30.45in 4.0mph 77% 0.00in
03:44 37.4°F - 31.0°F 30.46in 3.0mph 77% 0.00in
03:49 37.4°F 34.8°F 31.0°F 30.45in 3.0mph 76% 0.00in
03:54 37.5°F - 31.0°F 30.45in 5.0mph 76% 0.00in
03:59 37.7°F - 31.0°F 30.45in 5.0mph 76% 0.00in
04:04 37.8°F - 31.0°F 30.45in 4.0mph 76% 0.00in
04:09 38.0°F - 31.0°F 30.45in 4.0mph 76% 0.00in
04:14 38.2°F - 31.0°F 30.46in 4.0mph 76% 0.00in
04:19 38.1°F - 31.0°F 30.46in 5.0mph 75% 0.00in
04:24 38.0°F - 31.0°F 30.46in 2.0mph 75% 0.00in
04:29 38.1°F - 31.0°F 30.46in 1.0mph 75% 0.00in
04:34 38.1°F - 31.0°F 30.45in 0.0mph 75% 0.00in
04:39 37.9°F - 31.0°F 30.46in 0.0mph 75% 0.00in
04:44 37.9°F - 31.0°F 30.45in 0.0mph 75% 0.00in
04:49 37.9°F - 31.0°F 30.45in 2.0mph 75% 0.00in
04:54 38.1°F - 31.0°F 30.45in 3.0mph 76% 0.00in
04:59 38.4°F - 31.0°F 30.46in 4.0mph 76% 0.00in
05:04 38.3°F 36.1°F 32.0°F 30.46in 4.0mph 77% 0.00in
05:09 38.1°F - 32.0°F 30.45in 4.0mph 78% 0.00in
05:14 38.0°F 35.3°F 32.0°F 30.46in 4.0mph 79% 0.00in
05:19 38.0°F 35.0°F 32.0°F 30.46in 4.0mph 78% 0.00in
05:24 38.2°F - 32.0°F 30.46in 4.0mph 78% 0.00in
05:29 38.2°F - 31.0°F 30.46in 4.0mph 76% 0.00in
05:34 38.3°F - 31.0°F 30.46in 3.0mph 75% 0.00in
05:39 38.4°F - 31.0°F 30.46in 3.0mph 74% 0.00in
05:44 38.4°F - 31.0°F 30.46in 2.0mph 74% 0.00in
05:49 38.5°F - 32.0°F 30.45in 0.0mph 73% 0.00in
05:54 38.4°F 35.8°F 31.0°F 30.45in 4.0mph 73% 0.00in
05:59 38.2°F 35.6°F 31.0°F 30.45in 4.0mph 74% 0.00in
06:04 38.1°F 35.9°F 31.0°F 30.46in 4.0mph 76% 0.00in
06:09 38.1°F - 31.0°F 30.45in 3.0mph 76% 0.00in
06:14 38.1°F - 31.0°F 30.45in 3.0mph 76% 0.00in
06:19 38.0°F 34.6°F 31.0°F 30.46in 5.0mph 76% 0.00in
06:24 38.0°F 34.8°F 32.0°F 30.46in 6.0mph 77% 0.00in
06:29 38.1°F 35.4°F 32.0°F 30.46in 7.0mph 78% 0.00in
06:34 37.9°F 34.9°F 32.0°F 30.47in 6.0mph 79% 0.00in
06:39 37.6°F 34.6°F 32.0°F 30.46in 10.0mph 80% 0.00in
06:44 37.3°F 34.2°F 32.0°F 30.47in 9.0mph 80% 0.00in
06:49 37.0°F - 32.0°F 30.46in 5.0mph 81% 0.00in
06:54 36.8°F - 32.0°F 30.46in 3.0mph 82% 0.00in
06:59 36.5°F - 32.0°F 30.46in 4.0mph 82% 0.00in
07:04 36.3°F 33.1°F 31.0°F 30.46in 5.0mph 82% 0.00in
07:09 36.3°F 32.9°F 31.0°F 30.47in 6.0mph 83% 0.00in
07:14 36.3°F - 31.0°F 30.47in 4.0mph 83% 0.00in
07:19 36.2°F 33.3°F 31.0°F 30.47in 6.0mph 83% 0.00in
07:24 36.2°F - 31.0°F 30.47in 5.0mph 83% 0.00in
07:29 36.4°F 33.9°F 31.0°F 30.48in 5.0mph 82% 0.00in
07:34 36.7°F - 32.0°F 30.48in 4.0mph 82% 0.00in
07:39 37.2°F 34.6°F 32.0°F 30.49in 5.0mph 82% 0.00in
07:44 37.4°F - 32.0°F 30.49in 4.0mph 81% 0.00in
07:49 37.4°F - 32.0°F 30.49in 3.0mph 80% 0.00in
07:54 37.4°F 34.1°F 31.0°F 30.49in 4.0mph 79% 0.00in
07:59 37.5°F 35.0°F 32.0°F 30.49in 4.0mph 78% 0.00in
08:04 37.8°F - 32.0°F 30.50in 4.0mph 77% 0.00in
08:09 38.1°F 33.8°F 31.0°F 30.50in 4.0mph 76% 0.00in
08:14 38.6°F - 32.0°F 30.50in 5.0mph 76% 0.00in
08:19 39.1°F 35.1°F 32.0°F 30.50in 12.0mph 75% 0.00in
08:24 39.6°F - 32.0°F 30.51in 5.0mph 73% 0.00in
08:29 40.1°F - 32.0°F 30.51in 6.0mph 72% 0.00in
08:34 40.4°F - 32.0°F 30.51in 13.0mph 71% 0.00in
08:39 40.8°F 38.7°F 32.0°F 30.51in 5.0mph 71% 0.00in
08:44 41.3°F - 32.0°F 30.51in 3.0mph 70% 0.00in
08:49 41.9°F - 33.0°F 30.52in 3.0mph 69% 0.00in
08:54 42.4°F 40.8°F 32.0°F 30.52in 3.0mph 67% 0.00in
08:59 42.6°F - 33.0°F 30.52in 4.0mph 67% 0.00in
09:04 42.6°F - 32.0°F 30.52in 14.0mph 66% 0.00in
09:09 42.6°F - 32.0°F 30.52in 4.0mph 66% 0.00in
09:14 42.6°F - 32.0°F 30.51in 3.0mph 66% 0.00in
09:19 42.8°F - 32.0°F 30.51in 3.0mph 66% 0.00in
09:24 43.1°F - 32.0°F 30.51in 3.0mph 65% 0.00in
09:29 43.3°F 41.4°F 32.0°F 30.51in 4.0mph 64% 0.00in
09:33 43.3°F - 32.0°F 30.51in 4.0mph 65% 0.00in
09:39 43.4°F - 32.0°F 30.51in 4.0mph 64% 0.00in
09:44 43.7°F - 32.0°F 30.51in 3.0mph 63% 0.00in
09:49 43.9°F - 32.0°F 30.51in 4.0mph 62% 0.00in
09:54 44.0°F - 32.0°F 30.51in 3.0mph 61% 0.00in
09:59 44.2°F - 31.0°F 30.51in 2.0mph 60% 0.00in
10:04 44.5°F - 32.0°F 30.51in 3.0mph 59% 0.00in
10:09 44.8°F - 31.0°F 30.51in 3.0mph 57% 0.00in
10:14 45.2°F - 31.0°F 30.52in 2.0mph 55% 0.00in
10:19 45.6°F - 31.0°F 30.52in 2.0mph 55% 0.00in
10:24 46.1°F - 31.0°F 30.51in 3.0mph 55% 0.00in
10:29 46.4°F - 31.0°F 30.52in 4.0mph 55% 0.00in
10:34 46.3°F 45.0°F 31.0°F 30.52in 4.0mph 55% 0.00in
10:39 46.3°F 44.3°F 31.0°F 30.52in 5.0mph 56% 0.00in
10:44 46.3°F 44.6°F 31.0°F 30.52in 6.0mph 56% 0.00in
10:49 46.5°F - 31.0°F 30.52in 6.0mph 54% 0.00in
10:54 46.6°F - 31.0°F 30.52in 7.0mph 54% 0.00in
10:59 46.6°F - 31.0°F 30.51in 6.0mph 54% 0.00in
11:04 46.8°F - 31.0°F 30.52in 7.0mph 54% 0.00in
11:09 46.9°F - 31.0°F 30.51in 7.0mph 54% 0.00in
11:14 46.8°F - 31.0°F 30.51in 6.0mph 54% 0.00in
11:19 46.6°F - 31.0°F 30.50in 6.0mph 54% 0.00in
11:24 46.5°F - 31.0°F 30.51in 6.0mph 53% 0.00in
11:29 46.5°F - 31.0°F 30.51in 9.0mph 53% 0.00in
11:34 46.4°F - 29.0°F 30.50in 10.0mph 51% 0.00in
11:39 46.6°F - 29.0°F 30.50in 10.0mph 50% 0.00in
11:44 46.7°F - 29.0°F 30.49in 10.0mph 49% 0.00in
11:49 46.5°F - 29.0°F 30.49in 8.0mph 49% 0.00in
11:54 46.5°F - 29.0°F 30.49in 10.0mph 49% 0.00in
11:59 46.5°F - 29.0°F 30.48in 8.0mph 51% 0.00in
12:04 46.5°F - 31.0°F 30.48in 8.0mph 53% 0.00in
12:09 46.7°F - 31.0°F 30.48in 9.0mph 53% 0.00in
12:14 46.7°F - 31.0°F 30.48in 14.0mph 52% 0.00in
12:19 46.8°F - 31.0°F 30.47in 12.0mph 52% 0.00in
12:24 46.8°F - 31.0°F 30.47in 9.0mph 53% 0.00in
12:29 46.7°F - 31.0°F 30.47in 10.0mph 54% 0.00in
12:34 46.7°F - 32.0°F 30.47in 10.0mph 55% 0.00in
12:39 46.6°F - 32.0°F 30.46in 11.0mph 55% 0.00in
12:44 46.5°F - 32.0°F 30.45in 12.0mph 55% 0.00in
12:49 46.6°F - 32.0°F 30.46in 10.0mph 55% 0.00in
12:54 46.7°F - 31.0°F 30.45in 10.0mph 54% 0.00in
12:59 46.8°F - 31.0°F 30.45in 9.0mph 53% 0.00in
13:04 46.8°F - 31.0°F 30.45in 11.0mph 53% 0.00in
13:09 46.9°F - 31.0°F 30.45in 9.0mph 53% 0.00in
13:14 47.0°F - 31.0°F 30.45in 11.0mph 53% 0.00in
13:19 47.0°F - 31.0°F 30.45in 10.0mph 53% 0.00in
13:24 47.1°F - 31.0°F 30.45in 10.0mph 52% 0.00in
13:29 47.2°F - 31.0°F 30.45in 12.0mph 52% 0.00in
13:34 47.3°F - 29.0°F 30.45in 10.0mph 50% 0.00in
13:39 47.6°F - 29.0°F 30.44in 10.0mph 49% 0.00in
13:44 47.8°F - 29.0°F 30.44in 11.0mph 48% 0.00in
13:49 47.9°F - 29.0°F 30.44in 11.0mph 47% 0.00in
13:54 48.2°F - 29.0°F 30.44in 9.0mph 46% 0.00in
13:59 48.1°F - 29.0°F 30.45in 10.0mph 48% 0.00in
14:04 47.7°F - 31.0°F 30.45in 10.0mph 51% 0.00in
14:09 47.5°F - 31.0°F 30.44in 20.0mph 52% 0.00in
14:13 47.6°F - 31.0°F 30.44in 14.0mph 52% 0.00in
14:19 47.8°F - 31.0°F 30.45in 10.0mph 50% 0.00in
14:24 47.8°F - 31.0°F 30.44in 9.0mph 50% 0.00in
14:29 47.8°F - 31.0°F 30.44in 13.0mph 50% 0.00in
14:34 48.0°F - 31.0°F 30.44in 12.0mph 50% 0.00in
14:39 48.2°F - 31.0°F 30.43in 18.0mph 49% 0.00in
14:44 48.2°F - 29.0°F 30.42in 12.0mph 48% 0.00in
14:49 48.1°F - 29.0°F 30.43in 10.0mph 48% 0.00in
14:54 48.2°F - 29.0°F 30.43in 18.0mph 48% 0.00in
14:59 48.4°F - 29.0°F 30.42in 11.0mph 47% 0.00in
15:04 48.4°F - 29.0°F 30.43in 18.0mph 47% 0.00in
15:09 48.2°F - 29.0°F 30.43in 14.0mph 48% 0.00in
15:14 48.2°F - 31.0°F 30.44in 10.0mph 50% 0.00in
15:19 48.2°F - 31.0°F 30.44in 10.0mph 50% 0.00in
15:24 48.1°F - 31.0°F 30.43in 9.0mph 51% 0.00in
15:29 48.0°F - 32.0°F 30.44in 12.0mph 52% 0.00in
15:34 47.8°F - 31.0°F 30.43in 8.0mph 53% 0.00in
15:39 47.8°F - 32.0°F 30.43in 9.0mph 54% 0.00in
15:44 47.8°F - 32.0°F 30.43in 7.0mph 54% 0.00in
15:49 47.7°F - 32.0°F 30.42in 7.0mph 54% 0.00in
15:54 47.8°F - 31.0°F 30.43in 10.0mph 53% 0.00in
15:59 47.9°F - 32.0°F 30.43in 5.0mph 53% 0.00in
16:04 48.0°F - 33.0°F 30.44in 9.0mph 55% 0.00in
16:09 47.9°F - 33.0°F 30.45in 9.0mph 55% 0.00in
16:14 48.0°F - 32.0°F 30.45in 7.0mph 53% 0.00in
16:19 48.1°F - 32.0°F 30.44in 17.0mph 54% 0.00in
16:24 48.1°F - 33.0°F 30.44in 10.0mph 56% 0.00in
16:29 48.0°F - 33.0°F 30.44in 10.0mph 57% 0.00in
16:34 47.9°F - 35.0°F 30.45in 9.0mph 58% 0.00in
16:39 47.8°F - 33.0°F 30.44in 6.0mph 58% 0.00in
16:44 47.6°F - 33.0°F 30.44in 5.0mph 59% 0.00in
16:49 47.6°F - 35.0°F 30.44in 10.0mph 60% 0.00in
16:54 47.9°F - 35.0°F 30.44in 5.0mph 59% 0.00in
16:59 48.1°F - 35.0°F 30.45in 10.0mph 58% 0.00in
17:04 48.1°F - 35.0°F 30.45in 7.0mph 58% 0.00in
17:09 48.0°F - 35.0°F 30.44in 8.0mph 58% 0.00in
17:14 47.9°F - 35.0°F 30.43in 5.0mph 59% 0.00in
17:19 48.1°F - 35.0°F 30.44in 9.0mph 59% 0.00in
17:24 48.1°F - 35.0°F 30.44in 5.0mph 59% 0.00in
17:29 48.2°F - 35.0°F 30.44in 7.0mph 59% 0.00in
17:34 48.2°F - 35.0°F 30.44in 18.0mph 59% 0.00in
17:39 48.1°F - 35.0°F 30.43in 5.0mph 60% 0.00in
17:44 48.1°F - 36.0°F 30.43in 6.0mph 61% 0.00in
17:49 48.1°F - 36.0°F 30.43in 4.0mph 61% 0.00in
17:54 48.2°F - 36.0°F 30.43in 4.0mph 62% 0.00in
17:59 48.2°F - 36.0°F 30.43in 6.0mph 62% 0.00in
18:04 48.1°F - 36.0°F 30.44in 8.0mph 62% 0.00in
18:09 48.0°F - 36.0°F 30.44in 10.0mph 62% 0.00in
18:14 48.1°F - 36.0°F 30.43in 7.0mph 63% 0.00in
18:19 48.2°F - 37.0°F 30.43in 6.0mph 64% 0.00in
18:24 48.2°F - 37.0°F 30.43in 8.0mph 64% 0.00in
18:29 48.1°F - 37.0°F 30.43in 8.0mph 64% 0.00in
18:34 48.2°F - 37.0°F 30.43in 5.0mph 65% 0.00in
18:39 48.2°F - 37.0°F 30.43in 5.0mph 65% 0.00in
18:44 48.1°F - 37.0°F 30.42in 6.0mph 65% 0.00in
18:49 48.1°F - 37.0°F 30.42in 5.0mph 66% 0.00in
18:54 48.1°F - 37.0°F 30.42in 6.0mph 66% 0.00in
18:59 48.0°F - 38.0°F 30.42in 7.0mph 67% 0.00in
19:04 48.0°F - 38.0°F 30.42in 6.0mph 67% 0.00in
19:09 48.1°F - 38.0°F 30.42in 5.0mph 67% 0.00in
19:14 48.1°F - 38.0°F 30.41in 6.0mph 67% 0.00in
19:19 48.0°F - 38.0°F 30.41in 3.0mph 67% 0.00in
19:24 47.9°F - 38.0°F 30.41in 2.0mph 67% 0.00in
19:29 48.0°F - 38.0°F 30.41in 5.0mph 68% 0.00in
19:34 48.1°F - 38.0°F 30.41in 7.0mph 67% 0.00in
19:39 48.1°F - 38.0°F 30.41in 6.0mph 67% 0.00in
19:44 48.1°F - 38.0°F 30.41in 6.0mph 67% 0.00in
19:49 48.1°F - 38.0°F 30.42in 6.0mph 68% 0.00in
19:54 48.1°F - 38.0°F 30.42in 6.0mph 68% 0.00in
19:59 48.1°F - 38.0°F 30.42in 5.0mph 68% 0.00in
20:04 48.2°F - 38.0°F 30.42in 5.0mph 68% 0.00in
20:09 48.2°F - 38.0°F 30.42in 5.0mph 68% 0.00in
20:14 48.2°F - 38.0°F 30.42in 5.0mph 68% 0.00in
20:19 48.2°F - 38.0°F 30.42in 5.0mph 68% 0.00in
20:24 48.3°F - 38.0°F 30.42in 6.0mph 68% 0.00in
20:29 48.3°F - 38.0°F 30.42in 5.0mph 68% 0.00in
20:34 48.3°F - 38.0°F 30.42in 3.0mph 68% 0.00in
20:39 48.5°F - 39.0°F 30.42in 4.0mph 68% 0.00in
20:44 48.6°F - 39.0°F 30.41in 4.0mph 68% 0.00in
20:49 48.7°F - 39.0°F 30.41in 2.0mph 68% 0.00in
20:54 48.6°F - 39.0°F 30.41in 3.0mph 68% 0.00in
20:59 48.8°F - 39.0°F 30.41in 16.0mph 68% 0.00in
21:04 49.1°F - 39.0°F 30.40in 3.0mph 68% 0.00in
21:09 49.1°F - 39.0°F 30.40in 5.0mph 68% 0.00in
21:14 49.1°F - 39.0°F 30.39in 3.0mph 68% 0.00in
Comma Delimited File
Powered by Weather Underground, Inc.